www.pogodaiklimat.ru

Погода и климат >> Архив погоды >> Кувейт >> Abdaly


ПОГОДА в Abdaly

  • Прогноз погоды в Abdaly
  • Монитор погоды в Abdaly
  • Климат города

АРХИВ ПОГОДЫ в Abdaly

Время (UTC), дата Ветер
(напр.,м/с)
 
Видим.   Явления Облачность Т
(С)
Тd
(С)
f
(%)
Тe
(С)
Тes
(С)
Комфортность P
(гПа)
Po
(гПа)
Тmin
(С)
Tmax
(С)
R
(мм)
R24
(мм)
S
(см)
00 14.02 С 3 3100 м в посл. час дождь {ливн. осадки} н/о +16.0 +13.7 86 +16 +16 1016.5 1017.0
03 14.02 С 3 6000 м дымка {ливн. осадки, дождь} н/о +13.5 +12.4 93 +12 +12 1018.9 1019.0
06 14.02 С 4 8000 м дымка {ливн. осадки, дождь} н/о +15.3 +12.5 83 +14 +14 1021.6 1022.0
09 14.02 СВ 4 15 км н/о +21.2 +10.9 52 +23 +23 комфорт 1020.8 1021.0
12 14.02 С 4 20 км н/о +22.5 +8.6 41 +24 +24 комфорт 1019.9 1020.0
15 14.02 С 3 20 км н/о +20.2 +7.3 43 +21 +21 комфорт 1020.7 1021.0
18 14.02 СЗ 2 20 км н/о +15.0 +6.5 57 +15 +15 1022.1 1022.0
21 14.02 С 2 20 км н/о +12.8 +5.9 63 +13 +13 1021.9 1022.0 +12.6 +23.3
00 15.02 СЗ 2 19 км н/о +9.6 +5.3 75 +9 +9 1021.8 1022.0
03 15.02 СЗ 2 10 км н/о +8.4 +5.1 80 +7 +7 1023.2 1023.0
06 15.02 С 2 14 км н/о +16.1 +7.5 57 +17 +17 1023.9 1024.0
09 15.02 С 2 19 км н/о +22.2 +5.7 34 +23 +23 комфорт 1023.1 1023.0
12 15.02 В 1 20 км н/о +23.7 +3.5 27 +23 +23 комфорт 1021.2 1021.0
15 15.02 ЮВ 2 15 км в посл. час дождь н/о +16.6 +11.9 74 +17 +17 1020.3 1020.0
18 15.02 СВ 1 12 км н/о +16.5 +10.3 67 +17 +17 1021.1 1021.0
21 15.02 СВ 1 20 км в посл. час дождь {ливн. осадки} н/о +16.0 +9.6 66 +17 +17 1022.3 1022.0 +8.2 +25.7
00 16.02 С 1 19 км {ливн. осадки, дождь} н/о +13.4 +8.4 72 +14 +14 1020.8 1021.0
03 16.02 В 1 16 км н/о +13.2 +8.8 75 +13 +13 1021.1 1021.0
06 16.02 В 2 8000 м дымка н/о +18.4 +13.3 72 +20 +20 1021.5 1022.0
09 16.02 ЮВ 2 7000 м дымка н/о +26.3 +14.8 49 +29 +29 жарко 1020.0 1020.0
12 16.02 Ю 2 10 км н/о +26.0 +9.6 36 +27 +27 жарко 1018.0 1018.0
15 16.02 Ю 1 9000 м дымка н/о +21.6 +12.7 57 +24 +24 комфорт 1017.0 1017.0
18 16.02 Ю 2 4500 м дымка н/о +18.6 +17.0 90 +20 +20 1017.6 1018.0
21 16.02 Ю 2 3700 м дымка н/о +18.3 +17.1 93 +20 +20 1016.5 1017.0 +12.8 +27.5
00 17.02 Ю 2 3000 м дымка н/о +17.1 +16.9 99 +18 +18 1015.1 1015.0
03 17.02 Ю 2 3700 м дымка н/о +17.1 +15.6 91 +18 +18 1015.4 1015.0
06 17.02 ЮЗ 4 5000 м дым н/о +22.0 +15.9 68 +26 +26 душно 1016.0 1016.0
09 17.02 ЮЗ 5 4400 м дымка н/о +28.6 +13.2 39 +30 +30 жарко 1013.8 1014.0
12 17.02 Ю 4 4200 м дымка н/о +28.0 +14.9 45 +31 +31 душно 1011.0 1011.0
15 17.02 Ю 3 6000 м дымка н/о +22.3 +15.1 64 +26 +26 жарко 1010.6 1011.0
18 17.02 Ю 3 6000 м дымка н/о +21.4 +14.3 64 +24 +24 комфорт 1009.8 1010.0
21 17.02 Ю 3 8000 м дымка н/о +22.2 +13.3 57 +25 +25 комфорт 1007.6 1008.0 +16.9 +30.3
00 18.02 Ю 4 7000 м дымка {ливн. осадки, дождь} н/о +21.3 +14.8 66 +24 +24 комфорт 1006.0 1006.0
03 18.02 ЮЗ 5 7000 м дымка н/о +21.8 +14.2 62 +25 +25 комфорт 1006.0 1006.0
06 18.02 СЗ 8 3300 м в посл. час осадки {ливн. осадки, дождь} н/о +20.3 +13.3 64 +22 +22 комфорт 1010.2 1010.0
09 18.02 С 12 700 м туман {ливн. осадки, дождь} н/о +22.0 +2.0 27 +22 +22 комфорт 1011.9 1012.0
12 18.02 С 4 5000 м дым {ливн. осадки, дождь} н/о +23.0 +2.7 26 +23 +23 комфорт 1012.1 1012.0
15 18.02 В 1 2500 м дымка н/о +20.6 +1.9 29 +22 +22 комфорт 1012.9 1013.0
18 18.02 Ю 1 4900 м дымка н/о +17.4 +3.7 40 +19 +19 1013.5 1014.0
21 18.02 З 2 1700 м дымка н/о +17.2 +1.8 35 +18 +18 1013.2 1013.0 +16.3 +25.0
00 19.02 С 1 2300 м дымка н/о +14.9 +2.2 42 +16 +16 1012.9 1013.0
03 19.02 ЮЗ 2 2700 м дымка н/о +13.5 +3.6 51 +13 +13 1013.6 1014.0
06 19.02 З 5 2700 м дымка н/о +18.2 +4.0 39 +18 +18 1014.9 1015.0
09 19.02 СЗ 6 5000 м дым н/о +22.2 +5.9 35 +23 +23 комфорт 1014.5 1015.0
12 19.02 С 4 9000 м дым н/о +22.9 +5.7 33 +23 +23 комфорт 1013.8 1014.0
15 19.02 С 4 20 км н/о +20.4 +2.3 30 +21 +21 комфорт 1015.0 1015.0
18 19.02 СЗ 2 20 км н/о +15.4 +2.2 41 +16 +16 1016.6 1017.0
21 19.02 С 2 20 км н/о +13.3 +4.1 54 +13 +13 1016.7 1017.0 +12.6 +23.2
00 20.02 СЗ 2 20 км н/о +10.8 +3.7 61 +10 +10 1016.6 1017.0
03 20.02 СЗ 1 10 км н/о +9.7 +4.5 70 +9 +9 1017.3 1017.0
06 20.02 С 2 19 км н/о +15.8 +5.6 51 +16 +16 1018.2 1018.0
09 20.02 СЗ 2 20 км н/о +21.4 +5.8 36 +22 +22 комфорт 1017.4 1017.0
12 20.02 С 3 20 км н/о +22.6 +4.3 30 +23 +23 комфорт 1015.0 1015.0
15 20.02 С 2 20 км н/о +20.4 +4.4 35 +22 +22 комфорт 1015.1 1015.0
18 20.02 СВ 1 20 км н/о +17.6 +4.1 41 +19 +19 1015.3 1015.0

 

Местоположение метеостанции Abdaly (Кувейт): широта 30.08 долгота 47.70 высота над уровнем моря 70 м.

В архиве по умолчанию представлена погода в Abdaly за последнюю неделю. Архивные данные за месяц целиком и за предыдущие месяцы, начиная с января 2011 года, Вы можете получить, выбрав интересующий диапазон дат из раскрывающегося списка и нажав кнопку "Ввод!".

Внимание! Время в таблицах - всемирное. Для получения местного времени необходимо прибавить поправку, которая в Abdaly равна 3 ч.

Смотрите также архив погоды в соседних городах и на ближайших метеорологических станциях:

Погода в Sabriyah (Кувейт) (39 км)
Погода в Mitribah (Кувейт) (43 км)
Погода в Basrah Airport (Ирак) (50 км)
Погода в Jal Aliyah (Кувейт) (54 км)
Погода в Basrah (Ирак) (55 км)
Погода в Abadan (Иран) (62 км)
Погода в Bubiyan (Кувейт) (74 км)
Погода в Fao (Ирак) (78 км)
Погода в Jahra (Кувейт) (85 км)
Погода в Failaka Island (Кувейт) (88 км)

Пояснения к столбцам:

Ветер - указаны скорость ветра в м/с - средняя за 10 мин, порывы в срок и между сроками (в фигурных скобках) и направление, откуда дует ветер: С - северный, СВ - северо-восточный, В - восточный, ЮВ - юго-восточный, Ю - южный, ЮЗ - юго-западный, З - западный, СЗ - северо-западный.
Видимость - горизонтальная дальность видимости в метрах или километрах. При видимости от 1 до 10 км при отсутствии осадков обычно наблюдается дымка, при ухудшении видимости до 1 км и менее - туман. В сухую погоду видимость может ухудшаться дымом, пылью или мглою.
Явления - указаны атмосферные явления, наблюдавшиеся в срок или в последний час перед сроком; фигурными скобками обозначены явления, наблюдавшиеся между сроками (за 1-3 часа до срока); квадратными скобками обозначены град или гололедные отложения с указанием их диаметра в мм.
Облачность - указаны через наклонную черту общая и нижняя облачность в баллах и высота нижней границы облаков в метрах; квадратными скобками обозначены формы облаков: Ci - перистые, Cs - перисто-слоистые, Cc - перисто-кучевые, Ac - высококучевые, As - высокослоистые, Sc - слоисто-кучевые, Ns - слоисто-дождевые, Cu - кучевые, Cb - кучево-дождевые. Подробнее классификацию облаков см. в Атласе облаков (PDF).
T - Температура воздуха - температура, измеренная на высоте 2 м над землей.
Td - Температура точки росы - температура, при понижении до которой содержащийся в воздухе водяной пар достигнет насыщения.
f - Относительная влажность воздуха - влажноcть воздуха, измеренная на высоте 2 м над землей.
Te - Эффективная температура - температура, которую ощущает одетый по сезону человек в тени. Характеристика душности погоды. При расчете учитывается влияние влажности воздуха и скорости ветра на теплоощущения человека.
Tes - Эффективная температура на солнце - температура, которую ощущает человек, с поправкой на солнечный нагрев. Характеристика знойности погоды. Зависит от высоты солнца над горизонтом, облачности и скорости ветра. Ночью, в пасмурную погоду, а также при ветре 12 м/с и более поправка равна нулю.
P - Атмосферное давление - приведенное к уровню моря атмосферное давление.
Po - Атмосферное давление - измеренное на уровне метеостанции атмосферное давление.
Tmin - Минимальная температура - минимум температуры воздуха на высоте 2 м над землей.
Tmax - Максимальная температура - максимум температуры воздуха на высоте 2 м над землей.
R - Количество осадков - Количество выпавших осадков за период времени, мм. При наведении курсора мыши на число - период времени, за который выпало указанное количество осадков.
R24 - Количество осадков - Количество выпавших осадков за 24 часа, мм.
S - Снежный покров - Высота снежного покрова, см. При наведении курсора мыши на число - состояние снежного покрова и степень покрытия местности в баллах.